When you browse on this site, cookies collect data to enhance your experience and personalize the content and advertising you see.
Visit our Privacy Policy to learn more. By continuing to use the site, you agree to this use of cookies and data.
EN

Hourly Weather Goiania

Today, 28 September, Monday

Time Temperature Precipitation Wind Pressure Humidity
00:00 +26°C° 0 mm 1 mps 693 mmHg 36%
01:00 +26°C° 0 mm 1 mps 693 mmHg 37%
02:00 +25°C° 0 mm 1 mps 693 mmHg 37%
03:00 +25°C° 0 mm 1 mps 692 mmHg 37%
04:00 +24°C° 0 mm 1 mps 692 mmHg 37%
05:00 +24°C° 0 mm 1 mps 692 mmHg 36%
06:00 +23°C° 0 mm 1 mps 692 mmHg 35%
07:00 +27°C° 0 mm 1 mps 693 mmHg 30%
08:00 +30°C° 0 mm 1 mps 695 mmHg 24%
09:00 +35°C° 0 mm 2 mps 696 mmHg 19%
10:00 +37°C° 0 mm 2 mps 696 mmHg 17%
11:00 +39°C° 0 mm 2 mps 696 mmHg 15%
12:00 +40°C° 0 mm 2 mps 696 mmHg 13%
13:00 +40°C° 0 mm 2 mps 695 mmHg 12%
14:00 +41°C° 0 mm 1 mps 694 mmHg 12%
15:00 +41°C° 0 mm 1 mps 693 mmHg 11%
16:00 +39°C° 0 mm 1 mps 693 mmHg 13%
17:00 +36°C° 0 mm 1 mps 692 mmHg 15%
18:00 +34°C° 0 mm 1 mps 692 mmHg 17%
19:00 +32°C° 0 mm 1 mps 692 mmHg 20%
20:00 +30°C° 0 mm 1 mps 693 mmHg 22%
21:00 +28°C° 0 mm 1 mps 693 mmHg 25%
22:00 +28°C° 0 mm 1 mps 693 mmHg 26%
23:00 +27°C° 0 mm 1 mps 693 mmHg 27%

Tomorrow, 29 September, Tuesday

Time Temperature Precipitation Wind Pressure Humidity
00:00 +27°C° 0 mm 1 mps 693 mmHg 28%
01:00 +27°C° 0 mm 1 mps 693 mmHg 27%
02:00 +26°C° 0 mm 1 mps 692 mmHg 26%
03:00 +26°C° 0 mm 1 mps 692 mmHg 25%
04:00 +26°C° 0 mm 1 mps 692 mmHg 25%
05:00 +25°C° 0 mm 2 mps 692 mmHg 25%
06:00 +25°C° 0 mm 2 mps 693 mmHg 26%
07:00 +28°C° 0 mm 2 mps 694 mmHg 23%
08:00 +31°C° 0 mm 3 mps 695 mmHg 19%
09:00 +36°C° 0 mm 4 mps 696 mmHg 16%
10:00 +37°C° 0 mm 4 mps 695 mmHg 15%
11:00 +40°C° 0 mm 4 mps 695 mmHg 13%
12:00 +42°C° 0 mm 3 mps 695 mmHg 11%
13:00 +42°C° 0 mm 3 mps 694 mmHg 11%
14:00 +42°C° 0 mm 3 mps 694 mmHg 10%
15:00 +43°C° 0 mm 3 mps 693 mmHg 10%
16:00 +40°C° 0 mm 3 mps 693 mmHg 11%
17:00 +38°C° 0 mm 3 mps 692 mmHg 13%
18:00 +36°C° 0 mm 2 mps 692 mmHg 14%
19:00 +34°C° 0 mm 2 mps 692 mmHg 16%
20:00 +31°C° 0 mm 2 mps 693 mmHg 17%
21:00 +30°C° 0 mm 2 mps 693 mmHg 18%
22:00 +29°C° 0 mm 2 mps 693 mmHg 19%
23:00 +28°C° 0 mm 2 mps 693 mmHg 20%

Day after tomorrow, 30 September, Wednesday

Time Temperature Precipitation Wind Pressure Humidity
00:00 +28°C° 0 mm 2 mps 693 mmHg 21%
01:00 +27°C° 0 mm 2 mps 693 mmHg 21%
02:00 +27°C° 0 mm 2 mps 693 mmHg 22%
03:00 +27°C° 0 mm 2 mps 692 mmHg 23%
04:00 +27°C° 0 mm 3 mps 693 mmHg 24%
05:00 +27°C° 0 mm 4 mps 693 mmHg 25%
06:00 +27°C° 0 mm 4 mps 694 mmHg 26%
07:00 +29°C° 0 mm 5 mps 694 mmHg 25%
08:00 +33°C° 0 mm 6 mps 695 mmHg 24%
09:00 +35°C° 0 mm 6 mps 696 mmHg 23%
10:00 +38°C° 0 mm 6 mps 696 mmHg 20%
11:00 +40°C° 0 mm 6 mps 696 mmHg 17%
12:00 +41°C° 0 mm 5 mps 695 mmHg 14%
13:00 +41°C° 0 mm 5 mps 695 mmHg 14%
14:00 +42°C° 0 mm 5 mps 694 mmHg 14%
15:00 +42°C° 0 mm 5 mps 693 mmHg 13%
16:00 +40°C° 0 mm 4 mps 693 mmHg 15%
17:00 +37°C° 0 mm 3 mps 692 mmHg 17%
18:00 +36°C° 0 mm 3 mps 692 mmHg 19%
19:00 +34°C° 0 mm 3 mps 692 mmHg 21%
20:00 +33°C° 0 mm 3 mps 693 mmHg 23%
21:00 +30°C° 0 mm 3 mps 693 mmHg 25%
22:00 +29°C° 0 mm 2 mps 693 mmHg 26%
23:00 +29°C° 0 mm 2 mps 693 mmHg 28%

1 October, Thursday

Time Temperature Precipitation Wind Pressure Humidity
00:00 +28°C° 0 mm 2 mps 693 mmHg 30%
01:00 +28°C° 0 mm 3 mps 693 mmHg 31%
02:00 +28°C° 0 mm 3 mps 693 mmHg 31%
03:00 +27°C° 0 mm 3 mps 692 mmHg 32%
04:00 +27°C° 0 mm 4 mps 693 mmHg 33%
05:00 +27°C° 0 mm 4 mps 693 mmHg 35%
06:00 +27°C° 0 mm 5 mps 693 mmHg 36%
07:00 +29°C° 0 mm 5 mps 694 mmHg 34%
08:00 +32°C° 0 mm 5 mps 695 mmHg 32%
09:00 +34°C° 0 mm 5 mps 696 mmHg 30%
10:00 +36°C° 0 mm 5 mps 695 mmHg 26%
11:00 +37°C° 0 mm 5 mps 695 mmHg 22%
12:00 +40°C° 0 mm 5 mps 695 mmHg 18%
13:00 +41°C° 0 mm 4 mps 694 mmHg 17%
14:00 +41°C° 0 mm 4 mps 693 mmHg 16%
15:00 +41°C° 0 mm 4 mps 692 mmHg 15%
16:00 +39°C° 0 mm 3 mps 692 mmHg 17%
17:00 +37°C° 0 mm 3 mps 692 mmHg 19%
18:00 +35°C° 0 mm 3 mps 691 mmHg 21%
19:00 +34°C° 0 mm 3 mps 692 mmHg 23%
20:00 +31°C° 0 mm 3 mps 692 mmHg 24%
21:00 +30°C° 0 mm 3 mps 693 mmHg 26%
22:00 +29°C° 0 mm 3 mps 693 mmHg 27%
23:00 +29°C° 0 mm 3 mps 693 mmHg 28%

2 October, Friday

Time Temperature Precipitation Wind Pressure Humidity
00:00 +28°C° 0 mm 3 mps 693 mmHg 29%
01:00 +27°C° 0 mm 3 mps 693 mmHg 29%
02:00 +27°C° 0 mm 3 mps 692 mmHg 30%
03:00 +26°C° 0 mm 2 mps 692 mmHg 30%
04:00 +25°C° 0 mm 2 mps 692 mmHg 31%
05:00 +25°C° 0 mm 2 mps 692 mmHg 31%
06:00 +24°C° 0 mm 2 mps 693 mmHg 32%
07:00 +27°C° 0 mm 3 mps 694 mmHg 28%
08:00 +30°C° 0 mm 4 mps 694 mmHg 24%
09:00 +34°C° 0 mm 5 mps 695 mmHg 20%
10:00 +36°C° 0 mm 4 mps 695 mmHg 17%
11:00 +38°C° 0 mm 3 mps 695 mmHg 15%
12:00 +40°C° 0 mm 2 mps 695 mmHg 12%
13:00 +41°C° 0 mm 2 mps 694 mmHg 11%
14:00 +41°C° 0 mm 2 mps 694 mmHg 11%
15:00 +42°C° 0 mm 2 mps 693 mmHg 10%
16:00 +40°C° 0 mm 2 mps 693 mmHg 11%
17:00 +38°C° 0 mm 2 mps 692 mmHg 13%
18:00 +36°C° 0 mm 2 mps 692 mmHg 15%
19:00 +34°C° 0 mm 2 mps 692 mmHg 16%
20:00 +31°C° 0 mm 2 mps 692 mmHg 18%
21:00 +29°C° 0 mm 2 mps 693 mmHg 20%
22:00 +28°C° 0 mm 2 mps 693 mmHg 21%
23:00 +28°C° 0 mm 2 mps 693 mmHg 22%

3 October, Saturday

Time Temperature Precipitation Wind Pressure Humidity
00:00 +27°C° 0 mm 2 mps 693 mmHg 23%
01:00 +27°C° 0 mm 2 mps 693 mmHg 25%
02:00 +26°C° 0 mm 2 mps 692 mmHg 26%
03:00 +26°C° 0 mm 2 mps 692 mmHg 27%
04:00 +25°C° 0 mm 2 mps 692 mmHg 28%
05:00 +25°C° 0 mm 2 mps 692 mmHg 29%
06:00 +25°C° 0 mm 2 mps 693 mmHg 30%
07:00 +28°C° 0 mm 2 mps 694 mmHg 26%
08:00 +33°C° 0 mm 3 mps 695 mmHg 23%
09:00 +36°C° 0 mm 3 mps 696 mmHg 19%
10:00 +38°C° 0 mm 3 mps 696 mmHg 16%
11:00 +41°C° 0 mm 4 mps 696 mmHg 14%
12:00 +43°C° 0 mm 4 mps 696 mmHg 11%
13:00 +43°C° 0 mm 4 mps 695 mmHg 11%
14:00 +43°C° 0 mm 4 mps 694 mmHg 11%
15:00 +43°C° 0 mm 4 mps 693 mmHg 10%
16:00 +40°C° 0 mm 3 mps 693 mmHg 12%
17:00 +39°C° 0 mm 3 mps 693 mmHg 13%
18:00 +37°C° 0 mm 3 mps 693 mmHg 15%
19:00 +35°C° 0 mm 3 mps 693 mmHg 17%
20:00 +33°C° 0 mm 3 mps 693 mmHg 19%
21:00 +30°C° 0 mm 3 mps 694 mmHg 22%
22:00 +29°C° 0 mm 3 mps 694 mmHg 22%
23:00 +29°C° 0 mm 3 mps 694 mmHg 23%
Show more